Provincetown, Massachusetts, United States (02657)
Lat: 42.06N, Lon: 70.18W
Wx Zone: MAZ022
Local Info
Past Weather Observations for Today

NOTE: This archive is for the closest National Weather Service station to Provincetown. Information may differ from the station used for current weather conditions.

Click here for Long-term Archive

Time Weather Temperature Dewpoint Humidity Pressure Winds Precip Visibility
10:15
Mostly Cloudy
46°F / 8°C 37°F / 3°C 71% 30.39 in
(1029 mb)
ENE 10.4 mph
(ENE 17 kph)
- 10SM
09:55
Mostly Cloudy
46°F / 8°C 37°F / 3°C 71% 30.39 in
(1029 mb)
E 9.2 mph
(E 15 kph)
- 10SM
09:35
Overcast
46°F / 8°C 37°F / 3°C 71% 30.39 in
(1029 mb)
E 8.1 mph
(E 13 kph)
- 10SM
09:15
Overcast
45°F / 7°C 39°F / 4°C 81% 30.39 in
(1029 mb)
E 4.6 mph
(E 7 kph)
- 10SM
08:55
Overcast
43°F / 6°C 37°F / 3°C 81% 30.36 in
(1028 mb)
ENE 3.5 mph
(ENE 6 kph)
- 10SM
08:35
Overcast
43°F / 6°C 39°F / 4°C 87% 30.36 in
(1028 mb)
Calm - 10SM
08:15
Overcast
39°F / 4°C 39°F / 4°C 100% 30.36 in
(1028 mb)
Calm - 10SM
07:55
Overcast
37°F / 3°C 36°F / 2°C 93% 30.36 in
(1028 mb)
Calm - 10SM
07:35
Overcast
37°F / 3°C 36°F / 2°C 93% 30.36 in
(1028 mb)
Calm - 10SM
07:15
Overcast
39°F / 4°C 36°F / 2°C 87% 30.36 in
(1028 mb)
Calm - 10SM
06:55
Mostly Cloudy
39°F / 4°C 37°F / 3°C 93% 30.36 in
(1028 mb)
S 3.5 mph
(S 6 kph)
- 10SM
06:35
Overcast
39°F / 4°C 36°F / 2°C 87% 30.36 in
(1028 mb)
Calm - 10SM
06:15
Overcast
39°F / 4°C 36°F / 2°C 87% 30.36 in
(1028 mb)
Calm - 9SM
05:55
Overcast
41°F / 5°C 36°F / 2°C 81% 30.36 in
(1028 mb)
NNE 6.9 mph
(NNE 11 kph)
- 7SM
05:35
Mostly Cloudy
39°F / 4°C 36°F / 2°C 87% 30.36 in
(1028 mb)
ENE 3.5 mph
(ENE 6 kph)
- 10SM
05:15
Mostly Cloudy
39°F / 4°C 36°F / 2°C 87% 30.33 in
(1027 mb)
NE 6.9 mph
(NE 11 kph)
- 9SM
04:55
Overcast
39°F / 4°C 36°F / 2°C 87% 30.33 in
(1027 mb)
ENE 4.6 mph
(ENE 7 kph)
- 10SM
04:35
Overcast
39°F / 4°C 37°F / 3°C 93% 30.33 in
(1027 mb)
ENE 3.5 mph
(ENE 6 kph)
- 10SM
04:15
Mostly Cloudy
36°F / 2°C 34°F / 1°C 93% 30.33 in
(1027 mb)
ENE 3.5 mph
(ENE 6 kph)
- 10SM
03:55
Mostly Cloudy
36°F / 2°C 34°F / 1°C 93% 30.33 in
(1027 mb)
ENE 3.5 mph
(ENE 6 kph)
- 10SM
03:35
Partly Cloudy
37°F / 3°C 34°F / 1°C 87% 30.33 in
(1027 mb)
Calm - 10SM
03:15
Partly Cloudy
39°F / 4°C 36°F / 2°C 87% 30.33 in
(1027 mb)
Calm - 10SM
02:55
Mostly Cloudy
41°F / 5°C 36°F / 2°C 81% 30.33 in
(1027 mb)
ENE 4.6 mph
(ENE 7 kph)
0.01 in
(0.25 mm)
10SM
02:35
Overcast
41°F / 5°C 37°F / 3°C 87% 30.33 in
(1027 mb)
E 5.8 mph
(E 9 kph)
0.01 in
(0.25 mm)
10SM
02:15
Overcast
41°F / 5°C 37°F / 3°C 87% 30.36 in
(1028 mb)
ENE 4.6 mph
(ENE 7 kph)
- 10SM
01:55
Overcast
43°F / 6°C 37°F / 3°C 81% 30.33 in
(1027 mb)
NE 5.8 mph
(NE 9 kph)
0.01 in
(0.25 mm)
8SM
01:35
Overcast
43°F / 6°C 36°F / 2°C 76% 30.33 in
(1027 mb)
NE 8.1 mph
(NE 13 kph)
0.01 in
(0.25 mm)
10SM
01:15
Overcast
43°F / 6°C 36°F / 2°C 76% 30.33 in
(1027 mb)
NNE 6.9 mph
(NNE 11 kph)
0.01 in
(0.25 mm)
10SM
00:55
Overcast
43°F / 6°C 36°F / 2°C 76% 30.33 in
(1027 mb)
N 6.9 mph
(N 11 kph)
- 10SM
00:35
Overcast
43°F / 6°C 37°F / 3°C 81% 30.33 in
(1027 mb)
N 5.8 mph
(N 9 kph)
- 10SM
00:15
Overcast
43°F / 6°C 37°F / 3°C 81% 30.33 in
(1027 mb)
N 6.9 mph
(N 11 kph)
- 10SM
Time Weather Temperature Dewpoint Humidity Pressure Winds Precip Visibility


Weather for websites

WeatherForYou.com, LLC is not responsible for any damages or problems caused by this service. Current weather conditions are obtained from the closest station including government and personal stations which may have varying degrees of accuracy. Weather forecasts are derived from the NOAA NDFD. Like all things, this site belongs to Jesus Christ... He just trusts me to maintain it. If you have any questions or comments email webmaster@weatherforyou.com

Copyright © 2014, WeatherForYou.com LLC. All rights reserved.